Regional Weather Roundup
Issued by NWS

Home | Current Version | Previous Version | Graphics & Text | Print | Product List | Glossary Off
Versions: 1 2 3 4 5 6 7 8 9 10 11 12 13 14 15 16 17 18 19 20 21 22 23 24 25 26 27 28 29 30 31 32 33 34 35 36 37 38 39 40 41 42 43 44 45 46 47 48 49 50

143
ASUS43 KTOP 300459
RWRKS

WEATHER ROUNDUP FOR KANSAS
NATIONAL WEATHER SERVICE GOODLAND KS
1200 AM CDT FRI SEP 30 2016

NOTE:  "FAIR" INDICATES FEW OR NO CLOUDS BELOW 12,000 FEET WITH NO
SIGNIFICANT WEATHER AND/OR OBSTRUCTIONS TO VISIBILITY.

KSZ001>006-013>018-027>032-041>047-300600-
NORTHWEST KANSAS

CITY           SKY/WX    TMP DP  RH WIND       PRES   REMARKS
GOODLAND       CLEAR     52  38  58 S15       30.29S
HAYS           CLEAR     48  37  66 SE7       30.33S
HILL CITY      CLEAR     47  43  86 E3        30.33S
RUSSELL        CLEAR     52  46  80 SE9       30.32S
$$

KSZ061>065-074>080-084>089-300600-
SOUTHWEST KANSAS

CITY           SKY/WX    TMP DP  RH WIND       PRES   REMARKS
DODGE CITY     CLOUDY    52  44  74 SE8       30.33S
ELKHART          N/A     56  40  55 S13         N/A
GARDEN CITY    PTCLDY    54  40  59 SE10      30.30F
GREAT BEND     CLOUDY    52  39  62 SE3       30.33S
LIBERAL        CLEAR     55  37  50 SE10      30.31S
$$

KSZ066>073-081>083-090>101-300600-
SOUTHEAST KANSAS

CITY           SKY/WX    TMP DP  RH WIND       PRES   REMARKS
CHANUTE        CLEAR     54  50  86 N5        30.29S
COFFEYVILLE    CLEAR     53  49  86 N5        30.28F
HUTCHINSON     CLEAR     52  48  86 NE3       30.32F
MEDICINE LODGE   N/A     52  48  86 CALM      30.32S
NEWTON         CLEAR     54  49  83 NE3       30.32F
PARSONS        CLEAR     51  48  89 N3        30.29F
WICHITA INTL   PTCLDY    58  50  75 NE5       30.31F
WICHITA JABRA  CLEAR     53  50  89 N5        30.31F
WINFIELD       CLEAR     54  49  83 CALM      30.31F
$$

KSZ007>012-019>026-033>040-048>060-102>105-300600-
NORTHEAST KANSAS

CITY           SKY/WX    TMP DP  RH WIND       PRES   REMARKS
CONCORDIA      CLEAR     53  48  83 CALM      30.33S
EMPORIA        CLEAR     52  50  93 W5        30.31S
LAWRENCE       CLEAR     49  49 100 NW5       30.30F
MANHATTAN      CLEAR     50  47  89 CALM      30.31F
OLATHE IND     CLEAR     54  50  86 CALM      30.30F
OLATHE EXE     CLEAR     56  48  74 NW6       30.29F
SALINA         CLEAR     56  49  77 CALM      30.33S
TOPEKA BILLARD CLEAR     50  48  93 CALM      30.31S
TOPEKA FORBES  CLEAR     53  49  86 NW5       30.31S
$$




USA.gov is the U.S. government's official web portal to all federal, state and local government web resources and services.